Flag for Germany Weather past 2 weeks in Oelde, North Rhine-Westphalia, Germany

Now
52 °F

Clear.


Feels Like: 48 °F
Forecast: 42 / 58 °F
Wind: 10 mph from Southwest

Location: Paderborn / Lippstadt

Current Time: Oct 21, 2014 at 1:16:34 AM

Latest Report: Oct 21, 2014 at 12:20 AM


Visibility: 10 mi

Pressure: 29.92 "Hg

Humidity: 94%

Dew point: 50 °F

Location of OeldeLocation

Historic Weather in Oelde — Graph

°F

Oelde temperature yesterday

Maximum temperature yesterday: 59 °F (at 1:20 PM)
Minimum temperature yesterday: 52 °F (at 7:50 PM)
Average temperature yesterday: 56 °F

Past Weeks' High & Low Weather Summary

 TemperatureHumidityPressure
High72 °F (Oct 19, 1:20 PM)100% (Oct 6, 12:20 AM)30.15 "Hg (Oct 6, 12:20 AM)
Low45 °F (Oct 6, 6:50 AM)52% (Oct 14, 2:20 PM)29.56 "Hg (Oct 7, 9:20 AM)
Average57 °F80%29.85 "Hg
* Reported Oct 6 12:20 AM — Oct 21 12:20 AM, Oelde, Weather by CustomWeather, © 2014

Note: Actual official high and low records may vary slightly from our data, if they occured in-between our weather recording intervals... More about our weather records

Advertising

Oelde weather history for previous 24 hours

 ConditionsComfort  
Time TempWeatherWind HumidityBarometerVisibility
12:20 AM
Oct 21
52 °FClear.10 mph94%29.92 "Hg10 mi
11:50 PM
Oct 20
52 °FClear.8 mph94%29.92 "Hg10 mi
11:20 PM52 °FClear.10 mph88%29.92 "Hg10 mi
10:50 PM54 °FClear.14 mph88%29.95 "Hg10 mi
10:20 PM54 °FClear.14 mph82%29.95 "Hg10 mi
9:50 PM54 °FClear.12 mph82%29.95 "Hg10 mi
9:20 PM54 °FClear.13 mph82%29.95 "Hg10 mi
8:50 PM54 °FClear.12 mph82%29.95 "Hg10 mi
8:20 PM54 °FClear.8 mph82%29.95 "Hg10 mi
7:50 PM52 °FClear.8 mph88%29.95 "Hg10 mi
7:20 PM54 °FSunny.9 mph82%29.95 "Hg10 mi
6:50 PM54 °FSunny.8 mph82%29.95 "Hg10 mi
6:20 PM54 °FSunny.8 mph82%29.95 "Hg10 mi
5:50 PM55 °FSunny.10 mph72%29.98 "Hg10 mi
5:20 PM57 °FPassing clouds.10 mph67%29.98 "HgN/A
4:50 PM59 °FPassing clouds.12 mph63%29.98 "HgN/A
4:20 PM59 °FPassing clouds.14 mph63%29.98 "HgN/A
3:50 PM57 °FScattered clouds.13 mph67%29.98 "HgN/A
3:20 PM59 °FScattered clouds.12 mph63%30.01 "HgN/A
2:50 PM59 °FScattered clouds.15 mph68%30.01 "HgN/A
2:20 PM57 °FScattered clouds.15 mph72%30.01 "HgN/A
1:50 PM57 °FScattered clouds.12 mph72%30.01 "HgN/A
1:20 PM59 °FScattered clouds.14 mph68%30.01 "HgN/A
12:50 PM57 °FScattered clouds.15 mph72%30.01 "HgN/A
12:20 PM57 °FScattered clouds.15 mph72%30.01 "HgN/A
11:50 AM57 °FScattered clouds.14 mph72%30.01 "HgN/A
11:20 AM57 °FScattered clouds.14 mph72%30.01 "HgN/A
10:50 AM55 °FScattered clouds.15 mph77%30.01 "HgN/A
10:20 AM55 °FScattered clouds.14 mph77%30.01 "HgN/A
9:50 AM55 °FScattered clouds.14 mph77%30.01 "HgN/A
9:20 AM55 °FScattered clouds.13 mph77%30.01 "HgN/A
8:50 AM55 °FPassing clouds.13 mph77%30.01 "HgN/A
8:20 AM55 °FPassing clouds.13 mph77%30.01 "HgN/A
7:50 AM55 °FPassing clouds.14 mph77%30.01 "HgN/A
7:20 AM55 °FPassing clouds.14 mph77%30.01 "HgN/A
6:50 AM55 °FPassing clouds.14 mph77%29.98 "HgN/A
5:20 AM55 °FPassing clouds.14 mph77%29.98 "HgN/A
4:50 AM55 °FPassing clouds.14 mph77%29.98 "HgN/A
4:20 AM55 °FPassing clouds.13 mph77%30.01 "HgN/A
Weather by CustomWeather, © 2014

See weather overviewHow to use our weather pages